[Iaude] MPEC E80: 2024 EA2 [a=1.42,e=0.41,i=1.1,H=27.5]

mpec at cfa.harvard.edu mpec at cfa.harvard.edu
Wed Mar 6 08:20:06 EST 2024


M.P.E.C. 2024-E80                                 Issued 2024 March 6, 13:18 UT

     The Minor Planet Electronic Circulars contain information on unusual
         minor planets, routine data on comets and natural satellites,
         and occasional editorial announcements.  They are published
    on behalf of Division F of the International Astronomical Union by the
          Minor Planet Center, Smithsonian Astrophysical Observatory,
                          Cambridge, MA 02138, U.S.A.
			  
             Prepared using the Tamkin Foundation Computer Network

                              MPC at CFA.HARVARD.EDU
            URL https://www.minorplanetcenter.net/    ISSN 1523-6714

                                    2024 EA2                                    


Observations:
     K24E02A*1C2024 03 05.35284812 02 37.568+04 19 52.82         21.25GVEE080G96
     K24E02A 1C2024 03 05.35805412 02 42.137+04 19 45.91         20.36GVEE080G96
     K24E02A 1C2024 03 05.36327812 02 46.604+04 19 38.93         21.44GVEE080G96
     K24E02A 1C2024 03 05.36849512 02 51.133+04 19 31.98         21.20GVEE080G96
     K24E02A KC2024 03 05.46105812 04 12.684+04 17 27.31         20.84GVEE080I52
     K24E02A KC2024 03 05.46718212 04 18.224+04 17 18.35         21.02GVEE080I52
     K24E02A KC2024 03 05.47024412 04 20.975+04 17 14.14         21.02GVEE080I52
     K24E02A KC2024 03 06.04916212 14 55.265+04 01 33.06               VEE080J95
     K24E02A KC2024 03 06.06404212 15 11.988+04 01 08.22         20.6 GVEE080J95
     K24E02A KC2024 03 06.08197212 15 32.158+04 00 36.86         20.2 GVEE080J95
     K24E02A  C2024 03 06.30930912 20 23.158+03 54 51.45         20.1 GVEE080H01
     K24E02A  C2024 03 06.31261412 20 27.152+03 54 45.30         20.8 GVEE080H01
     K24E02A KC2024 03 06.32481412 20 41.979+03 54 22.33         20.8 GVEE080H01
     K24E02A  C2024 03 06.33046912 20 48.864+03 54 11.74         20.5 GVEE080H01

Observer details:
G96 Mt. Lemmon Survey.  Observer G. J. Leonard.  Measurers T. Beuden, V. F.
    Carvajal, D. Fay, J. B. Fazekas, D. C. Fuls, A. R. Gibbs, A. D. Grauer, H.
    Groeller, J. K. Hogan, R. A. Kowalski, S. M. Larson, G. J. Leonard, D.
    Rankin, R. L. Seaman, F. C. Shelly, K. W. Wierzchos.  1.5-m reflector +
    10K CCD.
H01 Magdalena Ridge Observatory, Socorro.  Observers W. H. Ryan, E. V. Ryan.
    Measurer W. H. Ryan.  2.4-m f/8.9 Ritchey-Chretien + CCD.
I52 Steward Observatory, Mt. Lemmon Station.  Observer J. K. Hogan.  Measurers
    T. Beuden, V. F. Carvajal, D. Fay, J. B. Fazekas, D. C. Fuls, A. R. Gibbs,
    A. D. Grauer, H. Groeller, J. K. Hogan, R. A. Kowalski, S. M. Larson, G.
    J. Leonard, D. Rankin, R. L. Seaman, F. C. Shelly, K. W. Wierzchos.  1.0-m
    prime focus + CCD.
J95 Great Shefford.  Observer P. Birtwhistle.  0.41-m f/6.3 Schmidt-Cassegrain
    + CCD.

Orbital elements:
2024 EA2                                                 Earth MOID = 0.0047 AU
Epoch 2024 Mar. 31.0 TT = JDT 2460400.5                 Veres                   
M 345.03644              (2000.0)            P               Q                  
n   0.58068074     Peri.   75.19049     -0.60392186     +0.79700814             
a   1.4229111      Node   157.65305     -0.73866053     -0.55611962             
e   0.4066698      Incl.    1.13200     -0.29943115     -0.23560348             
P   1.70           H   27.53          G   0.15           U   8                  
Residuals in seconds of arc
240305 G96 (1.6-  0.4+)   240305 I52  0.2+  0.2-    240306 H01  0.0   0.0
240305 G96  0.0   0.2+    240305 I52  0.4-  0.1-    240306 H01  0.2-  0.0
240305 G96  0.3-  0.0     240306 J95  0.2-  0.3-    240306 H01  0.0   0.1-
240305 G96  0.3+  0.2-    240306 J95  0.3+  0.3+    240306 H01  0.1+  0.0
240305 I52  0.4+  0.2+    240306 J95  0.6-  0.1-

Ephemeris:
2024 EA2                 a,e,i = 1.42, 0.41, 1                   q = 0.8443
Date    TT    R. A. (2000) Decl.     Delta      r    Elong.  Phase     V
2024 02 05    10 41 04.3 +06 26 29   0.2433  1.2120   155.9    19.4    25.9
...
2024 02 20    10 55 33.3 +05 46 07   0.1300  1.1159   167.5    11.0    24.0
...
2024 02 28    11 13 46.4 +05 22 20   0.07622 1.0657   171.3     8.1    22.6
...
2024 03 05    11 57 22.2 +04 28 46   0.03857 1.0294   166.4    13.1    21.3
2024 03 06    12 13 55.7 +04 06 15   0.03269 1.0234   163.2    16.2    21.0
2024 03 07    12 37 25.7 +03 32 11   0.02708 1.0176   158.3    21.2    20.8
...
2024 03 13    19 37 17.5 -06 25 42   0.02067 0.9834    58.7   120.2    23.9
...
2024 03 21    21 44 30.6 -06 27 35   0.06759 0.9415    34.9   142.7    28.8
...
2024 04 05    22 22 16.9 -05 40 49   0.1674  0.8793    40.3   132.7    29.4

M. P. C. Staff               (C) Copyright 2024 MPC           M.P.E.C. 2024-E80





More information about the Iaude mailing list